Location: Garshuizen
(53.3675°N, 6.7248°E)
Time: 12:31:38
(UTC+00:00)

Cosmos 2297 Rocket - Pass Details

Date: 15 May 2026
Orbit: 838 x 842 km, 71.0° (Epoch: 8 June)

Event Time Altitude Azimuth Distance (km) Brightness Sun altitude
Exits shadow 23:28:06 29° 191° (SSW) 1,483 2.9 -17.6°
Maximum altitude 23:30:58 68° 117° (ESE) 904 2.2 -17.6°
Drops below altitude 10° 23:36:35 10° 35° (NE) 2,467 5.5 -17.6°
Sets 23:39:03 0° 33° (NNE) 3,407 6.4 -17.5°
